Location: Skalnate Pleso
(49.1889°N, 20.2450°E)
Time: 06:15:52
(UTC+01:00)

Cosmos 1937 Rocket - Pass Details

Date: 19 November 2019
Orbit: 747 x 780 km, 74.0° (Epoch: 10 December)

Event Time Altitude Azimuth Distance (km) Brightness Sun altitude
Exits shadow 05:16:39 22° 254° (WSW) 1,617 4.7 -15.8°
Maximum altitude 05:19:16 35° 304° (WNW) 1,206 4.0 -15.3°
Drops below altitude 10° 05:23:58 10° 10° (N) 2,277 5.9 -14.6°
Sets 05:26:33 0° 19° (NNE) 3,207 6.8 -14.2°
